Location: Cerezo de Arriba
(41.2389°N, 3.5585°W)
Time: 03:54:14
(UTC+00:00)

Cosmos 858 Rocket - Pass Details

Date: 19 May 2025
Orbit: 752 x 770 km, 74.1° (Epoch: 23 June)

Event Time Altitude Azimuth Distance (km) Brightness Sun altitude
Rises 20:02:52 0° 340° (NNW) 3,218 8.7 -6.1°
Reaches altitude 10° 20:05:15 10° 341° (NNW) 2,287 7.9 -6.5°
Maximum altitude 20:10:27 87° 71° (ENE) 760 4.5 -7.3°
Drops below altitude 10° 20:15:36 10° 161° (SSE) 2,268 6.5 -8.1°
Enters shadow 20:16:53 - 161° (SSE) 2,767 6.9 -8.3°
